Weather History for Pittsfield, MA

Change the Weather History Date:

Sunday, February 3, 2013

  Actual Average Record
Temperature  
Mean Temperature 18 °F 21 °F  
Max Temperature 26 °F 30 °F 52 °F (2006)
Min Temperature 10 °F 13 °F -14 °F (1931)
Degree Days  
Heating Degree Days 47 44  
Month to date heating degree days 139 132  
Since 1 July heating degree days 3955 4357  
Cooling Degree Days 0 0  
Month to date cooling degree days 0 0  
Year to date cooling degree days 0 0  
Moisture  
Dew Point 10 °F    
Average Humidity 69    
Maximum Humidity 88    
Minimum Humidity 50    
Precipitation  
Precipitation 0.00 in 0.08 in 0.93 in (1970)
Month to date precipitation T 0.24  
Year to date precipitation 2.27 3.16  
Sea Level Pressure  
Sea Level Pressure 29.86 in    
Wind  
Wind Speed 2 mph (WNW)    
Max Wind Speed 8 mph    
Max Gust Speed 12 mph    
Visibility 9 miles    
Events      
T = Trace of Precipitation, MM = Missing Value Source: NWS Daily Summary

Daily Weather History Graph

Daily Weather History Graph

Search for Another Location

Airport:

Trip Planner

Search our weather history database for the weather conditions in past years. The results will help you decide how hot, cold, wet, or windy it might be!

Date:

Astronomy

Feb. 03, 2013 Rise Set
Actual Time 7:04 AM EST 5:10 PM EST
Civil Twilight 6:34 AM EST 5:39 PM EST
Nautical Twilight 6:01 AM EST 6:13 PM EST
Astronomical Twilight 5:28 AM EST 6:46 PM EST
Moon 12:29 AM EST (2/3) 10:44 AM EST (2/3)
Length of Visible Light 11h 04m
Length of Day
10h 05m
Waning Gibbous, 49% of the Moon is Illuminated
Feb 3
Waning Gibbous
Feb 10
New
Feb 17
First Quarter
Feb 25
Full
Mar 4
Last Quarter

Hourly Weather History & Observations

Time (EST) Temp. Windchill Dew Point Humidity Pressure Visibility Wind Dir Wind Speed Gust Speed Precip Events Conditions
12:54 AM 17.1 °F - 12.9 °F 84% 30.00 in 9.0 mi Calm Calm - 0.00 in   Overcast
1:54 AM 15.1 °F - 12.0 °F 88% 29.99 in 10.0 mi Calm Calm - N/A   Overcast
2:54 AM 15.1 °F - 12.0 °F 88% 29.98 in 10.0 mi Calm Calm - N/A   Overcast
3:54 AM 14.0 °F - 10.9 °F 88% 29.96 in 10.0 mi Calm Calm - N/A   Overcast
4:54 AM 12.0 °F - 9.0 °F 88% 29.95 in 10.0 mi Calm Calm - N/A   Overcast
5:54 AM 12.0 °F - 9.0 °F 88% 29.94 in 10.0 mi Calm Calm - N/A   Mostly Cloudy
6:54 AM 10.0 °F - 7.0 °F 87% 29.94 in 7.0 mi Calm Calm - N/A   Mostly Cloudy
7:12 AM 10.4 °F - 6.8 °F 85% 29.86 in 2.0 mi Calm Calm - N/A   Mostly Cloudy
7:22 AM 10.4 °F - 8.6 °F 92% 29.87 in 5.0 mi Calm Calm - N/A   Partly Cloudy
7:54 AM 12.0 °F - 9.0 °F 88% 29.95 in 8.0 mi Calm Calm - N/A   Mostly Cloudy
8:54 AM 15.1 °F - 12.0 °F 88% 29.95 in 8.0 mi Calm Calm - N/A   Overcast
9:54 AM 19.0 °F 13.9 °F 12.0 °F 74% 29.93 in 10.0 mi NE 3.5 mph - N/A   Overcast
10:49 AM 21.2 °F 14.9 °F 10.4 °F 63% 29.84 in 10.0 mi ESE 4.6 mph - N/A   Overcast
10:54 AM 21.0 °F 14.6 °F 10.0 °F 63% 29.90 in 10.0 mi Variable 4.6 mph - N/A   Overcast
11:22 AM 21.2 °F 14.9 °F 10.4 °F 63% 29.82 in 10.0 mi ESE 4.6 mph - N/A   Overcast
11:54 AM 24.1 °F 18.2 °F 10.9 °F 57% 29.85 in 10.0 mi NE 4.6 mph - N/A   Overcast
12:54 PM 24.1 °F 19.7 °F 10.0 °F 55% 29.81 in 10.0 mi North 3.5 mph - N/A   Mostly Cloudy
1:54 PM 25.0 °F - 10.0 °F 53% 29.79 in 10.0 mi Calm Calm - N/A   Overcast
2:54 PM 25.0 °F 19.3 °F 10.0 °F 53% 29.78 in 10.0 mi Variable 4.6 mph - N/A   Scattered Clouds
3:54 PM 26.1 °F 21.9 °F 10.0 °F 51% 29.77 in 10.0 mi Variable 3.5 mph - N/A   Overcast
4:54 PM 24.1 °F 18.2 °F 9.0 °F 53% 29.77 in 10.0 mi NNW 4.6 mph - N/A   Overcast
5:54 PM 21.0 °F 16.2 °F 9.0 °F 60% 29.77 in 10.0 mi NW 3.5 mph - N/A   Mostly Cloudy
6:54 PM 19.0 °F - 10.0 °F 68% 29.77 in 10.0 mi Calm Calm - N/A   Mostly Cloudy
7:54 PM 17.1 °F - 10.0 °F 74% 29.78 in 10.0 mi Calm Calm - N/A   Partly Cloudy
8:54 PM 18.0 °F 12.7 °F 9.0 °F 68% 29.78 in 10.0 mi SW 3.5 mph - N/A   Overcast
9:54 PM 18.0 °F 12.7 °F 9.0 °F 68% 29.77 in 10.0 mi SW 3.5 mph - N/A   Mostly Cloudy
10:54 PM 17.1 °F 11.7 °F 10.9 °F 77% 29.75 in 10.0 mi WSW 3.5 mph - N/A   Overcast
11:54 PM 18.0 °F 12.7 °F 10.9 °F 74% 29.75 in 10.0 mi SW 3.5 mph - N/A   Mostly Cloudy